Location: Marseilles
(40.7010°N, 83.3930°W)
Time: 09:23:40
(UTC-05:00)

Cosmos 1459 Rocket - Visible Passes

Search period start: 07 December 2016 00:00
Search period end: 17 December 2016 00:00
Orbit: 937 x 1001 km, 83.0° (Epoch: 06 December)

Date Brightness Start Highest point End Pass type
(mag) Time Alt. Az. Time Alt. Az. Time Alt. Az.
11 Dec 6.1 20:03:02 10° N 20:03:33 13° N 20:03:33 13° N visible
12 Dec 5.7 18:42:10 10° NNE 18:43:10 14° NNE 18:43:10 14° NNE visible
12 Dec 6.1 20:26:36 10° NNW 20:27:46 16° NNW 20:27:46 16° NNW visible
13 Dec 5.0 19:04:55 10° N 19:17:30 - SSE 19:07:52 26° NNE visible
13 Dec 6.1 20:50:32 10° NNW 21:01:48 - SSW 20:52:32 19° NW visible
14 Dec 6.8 06:52:43 10° E 06:54:41 12° ENE 06:56:38 10° ENE visible
14 Dec 3.8 19:28:04 10° N 19:34:12 72° E 19:40:23 10° SSE visible
14 Dec 6.4 21:15:09 10° NW 21:18:41 16° W 21:22:15 10° WSW visible
15 Dec 6.4 07:13:09 10° SE 07:17:38 22° E 07:22:05 10° NE visible
15 Dec 5.2 18:07:41 10° NNE 18:11:49 18° ENE 18:15:57 10° ESE visible
15 Dec 4.2 19:51:30 10° NNW 19:57:34 67° W 20:03:43 10° S visible
16 Dec 4.6 18:30:10 10° NNE 18:35:35 32° ENE 18:41:02 10° SE visible
16 Dec 5.2 20:15:14 10° NNW 20:20:49 38° W 20:26:28 10° SSW visible
